contact:dominique.lefevre@mio.osupytheas.fr, maurice.libes@osupytheas.fr, didier.mallarino@osupytheas.fr
Project:EMSO http://www.emso-fr.org/EMSO-France
Depth: 2436.0 m
Title:EMSO Ligure Ouest : Data MII capteur AQUADOPP
Date,Latitude,Longitude,X_East,Y_North,Z_Up,Amplitude_X,Amplitude_Y,Amplitude_Z,Batterie,SoundSpeed,Heading,Pitch,Roll,Pressure,TIS,Speed,Direction
, degrees North, degrees East, m.s-1, m.s-1,m.s-1, 1, 1, 1, Volt, m.s-1, degree, degree, degree, dbar, degree_C, m.s-1, degree
2019-10-18T00:04:04,42.805,6.029,-0.016,0.019,-0.069,99.0,110.0,98.0,13.4,1505.1,325.4,-0.8,1.9,2470.587,13.27,0.024,319.9
2019-10-18T00:07:05,42.805,6.029,-0.005,0.028,-0.029,99.0,110.0,98.0,13.3,1505.2,325.2,-0.7,1.9,2470.416,13.29,0.028,349.9
2019-10-18T00:10:06,42.805,6.029,0.005,0.031,-0.011,99.0,111.0,97.0,13.4,1505.2,324.9,-0.7,1.9,2470.328,13.3,0.031,9.2
2019-10-18T00:13:07,42.805,6.029,-0.003,0.051,-0.032,101.0,109.0,97.0,13.4,1505.3,324.4,-0.7,1.8,2470.186,13.31,0.051,356.6
2019-10-18T00:16:08,42.805,6.029,-0.001,0.034,-0.01,98.0,111.0,97.0,13.4,1505.3,325.5,-0.7,1.9,2470.185,13.32,0.034,358.3
2019-10-18T00:19:09,42.805,6.029,0.009,0.019,-0.036,99.0,110.0,97.0,13.4,1505.3,327.9,-0.7,1.8,2470.072,13.32,0.021,25.3
2019-10-18T00:22:10,42.805,6.029,0.035,0.034,-0.008,99.0,112.0,97.0,13.4,1505.3,325.6,-0.7,1.8,2470.062,13.32,0.048,45.8
2019-10-18T00:25:11,42.805,6.029,0.039,0.026,-0.025,99.0,111.0,97.0,13.4,1505.3,328.0,-0.7,1.8,2470.066,13.32,0.046,56.3
2019-10-18T00:28:12,42.805,6.029,0.007,0.038,-0.037,99.0,111.0,97.0,13.4,1505.3,325.6,-0.7,1.8,2470.002,13.32,0.038,10.4
2019-10-18T00:31:13,42.805,6.029,0.029,0.045,-0.003,99.0,110.0,97.0,13.4,1505.3,325.0,-0.7,1.8,2470.049,13.32,0.053,32.8
2019-10-18T00:34:14,42.805,6.029,0.026,0.009,-0.047,99.0,111.0,98.0,13.3,1505.3,325.1,-0.7,1.8,2469.981,13.32,0.027,70.9
2019-10-18T00:37:15,42.805,6.029,0.01,0.038,-0.033,99.0,111.0,98.0,13.4,1505.3,326.1,-0.7,1.8,2469.967,13.32,0.039,14.7
2019-10-18T00:40:16,42.805,6.029,0.002,0.026,-0.018,99.0,112.0,97.0,13.3,1505.3,328.2,-0.7,1.9,2469.958,13.32,0.026,4.4
2019-10-18T00:43:17,42.805,6.029,0.003,0.039,-0.011,101.0,109.0,97.0,13.4,1505.3,327.9,-0.7,1.8,2469.945,13.32,0.039,4.4
2019-10-18T00:46:18,42.805,6.029,-0.008,0.042,-0.02,99.0,111.0,98.0,13.4,1505.3,326.9,-0.8,1.9,2469.951,13.32,0.042,349.2
2019-10-18T00:49:19,42.805,6.029,0.02,0.028,-0.045,99.0,110.0,98.0,13.3,1505.3,323.9,-0.7,1.9,2469.915,13.32,0.034,35.5
2019-10-18T00:52:20,42.805,6.029,0.015,0.018,-0.039,100.0,111.0,98.0,13.4,1505.3,323.4,-0.7,1.8,2469.984,13.32,0.023,39.8
2019-10-18T00:55:21,42.805,6.029,0.002,0.019,-0.007,99.0,111.0,98.0,13.3,1505.3,324.6,-0.7,1.9,2469.968,13.32,0.019,6.0
2019-10-18T00:58:22,42.805,6.029,0.017,0.02,-0.018,100.0,110.0,99.0,13.3,1505.3,323.8,-0.7,1.8,2469.949,13.32,0.026,40.4
2019-10-18T01:01:23,42.805,6.029,0.008,0.01,-0.072,99.0,110.0,99.0,13.4,1505.3,325.5,-0.7,1.8,2469.967,13.32,0.012,38.7
2019-10-18T01:04:24,42.805,6.029,0.013,0.037,-0.023,100.0,110.0,98.0,13.4,1505.3,325.7,-0.8,1.8,2469.963,13.32,0.039,19.4
2019-10-18T01:07:25,42.805,6.029,0.014,0.034,-0.029,99.0,110.0,98.0,13.3,1505.3,328.0,-0.7,1.9,2469.946,13.32,0.036,22.4
2019-10-18T01:10:26,42.805,6.029,-0.022,0.016,-0.068,99.0,110.0,98.0,13.4,1505.3,326.7,-0.7,1.8,2469.982,13.32,0.027,306.0
2019-10-18T01:13:27,42.805,6.029,0.0,0.018,-0.009,99.0,110.0,98.0,13.4,1505.3,325.3,-0.7,1.8,2469.981,13.32,0.018,0.0
2019-10-18T01:16:28,42.805,6.029,0.005,0.028,-0.031,99.0,109.0,98.0,13.3,1505.3,324.4,-0.7,1.9,2469.911,13.32,0.028,10.1
2019-10-18T01:19:29,42.805,6.029,0.012,0.014,-0.034,99.0,110.0,98.0,13.4,1505.3,324.0,-0.7,1.8,2469.92,13.32,0.018,40.6
2019-10-18T01:22:30,42.805,6.029,0.008,0.016,0.006,99.0,110.0,98.0,13.4,1505.3,326.3,-0.7,1.8,2469.994,13.32,0.017,26.6
2019-10-18T01:25:31,42.805,6.029,0.03,0.013,-0.045,99.0,109.0,98.0,13.4,1505.3,326.8,-0.7,1.8,2469.973,13.32,0.032,66.6
2019-10-18T01:28:32,42.805,6.029,-0.002,0.003,-0.053,101.0,109.0,97.0,13.4,1505.3,327.0,-0.7,1.8,2469.937,13.32,0.003,326.3
2019-10-18T01:31:33,42.805,6.029,-0.002,0.012,-0.027,100.0,109.0,97.0,13.3,1505.3,323.8,-0.7,1.8,2469.993,13.32,0.012,350.5
2019-10-18T01:34:34,42.805,6.029,0.031,0.008,-0.004,100.0,110.0,97.0,13.3,1505.3,325.2,-0.7,1.8,2469.986,13.32,0.032,75.5
2019-10-18T01:37:35,42.805,6.029,0.066,-0.009,-0.015,100.0,109.0,97.0,13.4,1505.3,328.8,-0.7,1.8,2469.957,13.32,0.066,97.8
2019-10-18T01:40:36,42.805,6.029,0.039,-0.005,-0.038,99.0,109.0,98.0,13.3,1505.3,323.7,-0.7,1.9,2469.909,13.32,0.039,97.3
2019-10-18T01:43:37,42.805,6.029,0.005,0.036,-0.028,100.0,109.0,97.0,13.4,1505.3,327.8,-0.7,1.9,2469.948,13.32,0.036,7.9
2019-10-18T01:46:38,42.805,6.029,0.044,0.014,0.016,98.0,110.0,98.0,13.3,1505.3,324.2,-0.7,1.9,2469.958,13.32,0.046,72.4
2019-10-18T01:49:39,42.805,6.029,0.024,0.022,-0.02,99.0,109.0,99.0,13.4,1505.3,326.1,-0.7,1.8,2469.929,13.32,0.032,47.5
2019-10-18T01:52:40,42.805,6.029,-0.002,0.025,-0.025,98.0,110.0,98.0,13.3,1505.3,324.6,-0.7,1.8,2469.983,13.32,0.025,355.4
2019-10-18T01:55:41,42.805,6.029,0.01,0.023,-0.015,101.0,110.0,97.0,13.4,1505.3,326.9,-0.7,1.8,2469.973,13.32,0.025,23.5
2019-10-18T01:58:42,42.805,6.029,-0.033,-0.002,-0.061,99.0,110.0,98.0,13.3,1505.3,326.4,-0.7,1.9,2469.936,13.32,0.033,266.5
2019-10-18T02:01:43,42.805,6.029,0.006,0.034,-0.027,99.0,110.0,98.0,13.3,1505.3,325.6,-0.7,1.8,2469.958,13.32,0.034,10.0
2019-10-18T02:04:44,42.805,6.029,0.013,0.009,-0.046,99.0,109.0,98.0,13.3,1505.3,326.4,-0.7,1.8,2469.944,13.32,0.015,55.3
2019-10-18T02:07:45,42.805,6.029,0.011,0.021,-0.011,99.0,109.0,97.0,13.4,1505.3,323.7,-0.7,1.9,2469.973,13.32,0.023,27.6
2019-10-18T02:10:46,42.805,6.029,-0.001,0.03,-0.049,100.0,109.0,98.0,13.4,1505.3,324.3,-0.7,1.8,2469.938,13.32,0.03,358.1
2019-10-18T02:13:47,42.805,6.029,0.015,0.01,-0.03,99.0,109.0,98.0,13.3,1505.3,325.0,-0.7,1.8,2469.957,13.32,0.018,56.3
2019-10-18T02:16:48,42.805,6.029,0.015,0.021,-0.041,100.0,110.0,97.0,13.3,1505.3,325.8,-0.7,1.9,2469.955,13.32,0.025,35.5
2019-10-18T02:19:49,42.805,6.029,0.006,0.019,0.008,99.0,110.0,98.0,13.4,1505.3,325.3,-0.7,1.8,2469.982,13.32,0.019,17.5
2019-10-18T02:22:50,42.805,6.029,0.017,0.028,-0.026,100.0,110.0,98.0,13.3,1505.3,324.8,-0.7,1.8,2469.943,13.32,0.032,31.3
2019-10-18T02:25:51,42.805,6.029,-0.024,0.02,-0.07,99.0,110.0,98.0,13.4,1505.3,325.3,-0.7,1.8,2469.963,13.32,0.031,309.8
2019-10-18T02:28:52,42.805,6.029,0.002,0.016,-0.054,100.0,110.0,97.0,13.3,1505.3,326.3,-0.7,1.8,2469.948,13.32,0.016,7.1
2019-10-18T02:31:53,42.805,6.029,0.011,0.014,-0.033,100.0,110.0,97.0,13.4,1505.3,326.7,-0.7,1.8,2469.987,13.32,0.017,38.2
2019-10-18T02:34:54,42.805,6.029,-0.021,0.022,-0.044,99.0,110.0,97.0,13.4,1505.3,326.6,-0.7,1.9,2469.951,13.32,0.03,316.3
2019-10-18T02:37:55,42.805,6.029,0.032,0.023,-0.015,101.0,108.0,97.0,13.4,1505.3,324.6,-0.7,1.8,2469.951,13.32,0.039,54.3
2019-10-18T02:40:56,42.805,6.029,0.019,0.013,-0.016,98.0,111.0,98.0,13.4,1505.3,324.3,-0.7,1.8,2469.931,13.32,0.023,55.6
2019-10-18T02:43:57,42.805,6.029,0.009,0.029,-0.011,99.0,110.0,97.0,13.4,1505.3,327.9,-0.7,1.8,2469.941,13.32,0.03,17.2
2019-10-18T02:46:58,42.805,6.029,-0.017,-0.005,-0.067,99.0,110.0,97.0,13.4,1505.3,325.1,-0.7,1.8,2469.903,13.32,0.017,253.6
2019-10-18T02:49:59,42.805,6.029,0.018,-0.01,-0.07,99.0,110.0,98.0,13.4,1505.3,326.9,-0.7,1.8,2469.933,13.32,0.02,119.1
2019-10-18T02:53:00,42.805,6.029,-0.001,0.016,-0.018,98.0,110.0,98.0,13.4,1505.3,325.4,-0.7,1.8,2469.921,13.32,0.016,356.4
2019-10-18T02:56:01,42.805,6.029,0.009,-0.004,-0.05,99.0,110.0,98.0,13.4,1505.3,327.1,-0.7,1.8,2469.982,13.32,0.009,114.0
2019-10-18T02:59:02,42.805,6.029,0.024,0.019,-0.048,98.0,110.0,97.0,13.4,1505.3,327.5,-0.7,1.8,2469.931,13.32,0.03,51.6
2019-10-18T03:02:03,42.805,6.029,0.018,-0.011,-0.054,99.0,109.0,97.0,13.4,1505.3,323.8,-0.7,1.8,2469.953,13.32,0.021,121.4
2019-10-18T03:05:04,42.805,6.029,0.052,0.013,-0.009,98.0,109.0,98.0,13.3,1505.3,326.5,-0.7,1.9,2469.958,13.32,0.053,76.0
2019-10-18T03:08:05,42.805,6.029,0.027,0.016,-0.044,99.0,109.0,97.0,13.4,1505.3,328.4,-0.7,1.8,2469.945,13.32,0.031,59.3
2019-10-18T03:11:06,42.805,6.029,0.006,0.014,-0.032,99.0,108.0,98.0,13.3,1505.3,324.2,-0.8,1.9,2469.95,13.32,0.015,23.2
2019-10-18T03:14:07,42.805,6.029,-0.003,0.005,-0.063,98.0,108.0,97.0,13.4,1505.3,326.8,-0.7,1.8,2469.91,13.32,0.005,329.0
2019-10-18T03:17:08,42.805,6.029,-0.026,0.014,-0.055,99.0,107.0,98.0,13.3,1505.3,324.2,-0.7,1.8,2469.958,13.32,0.029,298.3
2019-10-18T03:20:09,42.805,6.029,0.026,0.033,-0.055,100.0,108.0,98.0,13.4,1505.3,328.0,-0.7,1.8,2469.947,13.32,0.042,38.2
2019-10-18T03:23:10,42.805,6.029,-0.007,-0.001,-0.077,98.0,110.0,98.0,13.4,1505.3,326.9,-0.7,1.8,2469.963,13.32,0.007,261.9
2019-10-18T03:26:11,42.805,6.029,-0.008,0.0,-0.074,98.0,108.0,98.0,13.4,1505.3,325.2,-0.8,1.8,2469.968,13.32,0.008,270.0
2019-10-18T03:29:12,42.805,6.029,-0.004,-0.01,-0.074,98.0,108.0,98.0,13.4,1505.3,324.7,-0.7,1.9,2469.956,13.32,0.01,201.8
2019-10-18T03:32:13,42.805,6.029,0.009,0.011,-0.054,100.0,106.0,97.0,13.4,1505.3,328.0,-0.7,1.8,2469.976,13.32,0.014,39.3
2019-10-18T03:35:14,42.805,6.029,0.007,0.019,-0.045,99.0,107.0,98.0,13.4,1505.3,326.3,-0.7,1.8,2469.925,13.32,0.02,20.2
2019-10-18T03:38:15,42.805,6.029,-0.011,0.003,-0.069,99.0,107.0,97.0,13.3,1505.3,326.4,-0.7,1.8,2469.941,13.32,0.011,285.3
2019-10-18T03:41:16,42.805,6.029,-0.013,0.001,-0.053,99.0,111.0,97.0,13.4,1505.3,324.5,-0.7,1.8,2469.988,13.32,0.013,274.4
2019-10-18T03:44:17,42.805,6.029,0.009,0.019,-0.026,98.0,108.0,98.0,13.3,1505.3,325.8,-0.7,1.8,2469.926,13.32,0.021,25.3
2019-10-18T03:47:18,42.805,6.029,0.027,0.007,-0.036,99.0,107.0,97.0,13.4,1505.3,328.4,-0.7,1.8,2469.96,13.32,0.027,75.5
2019-10-18T03:50:19,42.805,6.029,0.007,0.007,-0.035,98.0,107.0,97.0,13.4,1505.3,326.3,-0.7,1.8,2469.93,13.32,0.009,45.0
2019-10-18T03:53:20,42.805,6.029,-0.009,0.005,-0.039,100.0,108.0,98.0,13.3,1505.3,325.7,-0.7,1.8,2469.92,13.32,0.01,299.1
2019-10-18T03:56:21,42.805,6.029,0.024,0.008,-0.031,98.0,107.0,98.0,13.3,1505.3,324.1,-0.7,1.9,2469.931,13.32,0.025,71.6
2019-10-18T03:59:22,42.805,6.029,-0.019,-0.015,-0.065,99.0,107.0,97.0,13.4,1505.3,326.4,-0.7,1.8,2469.979,13.32,0.024,231.7
2019-10-18T04:02:23,42.805,6.029,0.032,0.017,-0.032,98.0,107.0,98.0,13.4,1505.3,324.5,-0.7,1.8,2469.93,13.32,0.036,62.0
2019-10-18T04:05:24,42.805,6.029,0.032,0.02,-0.008,99.0,108.0,98.0,13.4,1505.3,323.3,-0.7,1.8,2469.953,13.32,0.037,58.0
2019-10-18T04:08:25,42.805,6.029,0.023,0.018,-0.024,98.0,108.0,97.0,13.4,1505.3,328.2,-0.8,1.8,2469.943,13.32,0.029,52.0
2019-10-18T04:11:26,42.805,6.029,-0.003,0.017,-0.048,99.0,107.0,97.0,13.4,1505.3,325.7,-0.7,1.8,2469.924,13.32,0.017,350.0
2019-10-18T04:14:27,42.805,6.029,0.002,-0.006,-0.044,99.0,107.0,97.0,13.4,1505.3,323.0,-0.8,1.8,2469.953,13.32,0.006,161.6
2019-10-18T04:17:28,42.805,6.029,0.016,0.003,-0.027,100.0,108.0,97.0,13.4,1505.3,327.8,-0.7,1.8,2469.932,13.32,0.016,79.4
2019-10-18T04:20:29,42.805,6.029,0.002,0.012,-0.036,100.0,108.0,97.0,13.4,1505.3,328.4,-0.7,1.8,2469.977,13.32,0.012,9.5
2019-10-18T04:23:30,42.805,6.029,0.03,0.01,-0.015,99.0,108.0,98.0,13.3,1505.3,324.8,-0.8,1.8,2469.953,13.32,0.031,71.6
2019-10-18T04:26:31,42.805,6.029,-0.001,0.012,-0.014,100.0,106.0,98.0,13.3,1505.3,326.5,-0.7,1.8,2469.972,13.32,0.012,355.2
2019-10-18T04:29:32,42.805,6.029,-0.001,0.0,-0.048,99.0,108.0,98.0,13.4,1505.3,323.6,-0.7,1.8,2469.92,13.32,0.001,270.0
2019-10-18T04:32:33,42.805,6.029,0.001,0.0,-0.073,98.0,109.0,98.0,13.4,1505.3,326.1,-0.7,1.8,2469.974,13.32,0.001,90.0
2019-10-18T04:35:34,42.805,6.029,-0.011,0.002,-0.045,100.0,108.0,98.0,13.4,1505.3,326.3,-0.7,1.9,2469.941,13.32,0.011,280.3
2019-10-18T04:38:35,42.805,6.029,0.0,-0.005,-0.031,99.0,108.0,98.0,13.4,1505.3,324.3,-0.7,1.8,2469.951,13.32,0.005,180.0
2019-10-18T04:41:36,42.805,6.029,0.001,0.011,-0.083,99.0,108.0,98.0,13.4,1505.3,328.2,-0.7,1.8,2469.953,13.32,0.011,5.2
2019-10-18T04:44:37,42.805,6.029,0.009,0.0,-0.001,99.0,107.0,98.0,13.4,1505.3,325.5,-0.7,1.8,2469.96,13.32,0.009,90.0
2019-10-18T04:47:38,42.805,6.029,0.044,0.004,-0.02,100.0,106.0,98.0,13.3,1505.3,326.2,-0.7,1.8,2469.933,13.32,0.044,84.8
2019-10-18T04:50:39,42.805,6.029,0.003,0.023,-0.068,99.0,108.0,98.0,13.4,1505.3,326.6,-0.7,1.8,2469.947,13.32,0.023,7.4
2019-10-18T04:53:40,42.805,6.029,-0.023,0.005,-0.079,100.0,106.0,97.0,13.4,1505.3,327.5,-0.7,1.9,2469.942,13.32,0.023,282.3
2019-10-18T04:56:41,42.805,6.029,0.045,0.008,-0.014,100.0,106.0,99.0,13.3,1505.3,325.3,-0.8,1.8,2469.958,13.32,0.045,79.9
2019-10-18T04:59:42,42.805,6.029,0.019,0.004,-0.044,99.0,107.0,98.0,13.3,1505.3,323.7,-0.7,1.8,2469.933,13.32,0.019,78.1
2019-10-18T05:02:43,42.805,6.029,0.03,0.01,-0.029,100.0,107.0,98.0,13.4,1505.3,328.2,-0.7,1.8,2469.992,13.32,0.031,71.6
2019-10-18T05:05:44,42.805,6.029,0.011,-0.003,-0.021,98.0,105.0,99.0,13.4,1505.3,325.7,-0.7,1.8,2469.932,13.32,0.011,105.3
2019-10-18T05:08:45,42.805,6.029,-0.01,0.004,-0.049,101.0,107.0,97.0,13.4,1505.3,326.7,-0.7,1.8,2469.924,13.32,0.01,291.8
2019-10-18T05:11:46,42.805,6.029,0.039,0.026,-0.006,99.0,107.0,97.0,13.4,1505.3,323.1,-0.7,1.8,2469.97,13.32,0.046,56.3
2019-10-18T05:14:47,42.805,6.029,0.029,-0.007,-0.036,100.0,107.0,97.0,13.3,1505.3,326.6,-0.7,1.8,2469.957,13.32,0.029,103.6
2019-10-18T05:17:48,42.805,6.029,0.029,-0.008,-0.018,99.0,106.0,97.0,13.4,1505.3,325.9,-0.7,1.9,2469.991,13.32,0.03,105.4
2019-10-18T05:20:49,42.805,6.029,-0.017,0.021,-0.043,100.0,108.0,97.0,13.4,1505.3,323.4,-0.7,1.8,2469.967,13.32,0.027,321.0
2019-10-18T05:23:50,42.805,6.029,0.025,-0.007,-0.062,99.0,104.0,97.0,13.3,1505.3,325.8,-0.7,1.8,2469.99,13.32,0.025,105.6
2019-10-18T05:26:51,42.805,6.029,0.051,-0.014,-0.026,101.0,103.0,98.0,13.3,1505.3,325.4,-0.7,1.8,2469.958,13.32,0.052,105.3
2019-10-18T05:29:52,42.805,6.029,-0.017,0.011,-0.043,99.0,107.0,98.0,13.3,1505.3,323.0,-0.7,1.8,2469.989,13.32,0.02,302.9
2019-10-18T05:32:53,42.805,6.029,0.027,0.0,-0.025,98.0,104.0,98.0,13.3,1505.3,324.5,-0.7,1.9,2469.991,13.32,0.026,90.0
2019-10-18T05:35:54,42.805,6.029,0.012,-0.007,-0.068,97.0,108.0,99.0,13.4,1505.3,323.3,-0.7,1.9,2469.953,13.32,0.013,120.3
2019-10-18T05:38:55,42.805,6.029,0.028,0.011,-0.011,99.0,105.0,98.0,13.3,1505.3,327.4,-0.7,1.8,2469.976,13.32,0.03,68.6
2019-10-18T05:41:56,42.805,6.029,0.024,-0.002,-0.041,100.0,104.0,98.0,13.4,1505.3,325.5,-0.7,1.8,2469.958,13.32,0.024,94.8
2019-10-18T05:44:57,42.805,6.029,0.006,0.023,-0.018,99.0,103.0,99.0,13.4,1505.3,324.7,-0.7,1.8,2469.98,13.32,0.023,14.6
2019-10-18T05:47:58,42.805,6.029,0.038,-0.001,-0.009,99.0,105.0,97.0,13.4,1505.3,325.4,-0.7,1.8,2469.993,13.32,0.038,91.5
2019-10-18T05:50:59,42.805,6.029,0.044,-0.004,-0.018,98.0,105.0,97.0,13.4,1505.3,326.8,-0.7,1.9,2469.989,13.32,0.044,95.2
2019-10-18T05:54:00,42.805,6.029,0.013,-0.006,-0.041,99.0,105.0,98.0,13.4,1505.3,324.8,-0.7,1.8,2469.976,13.32,0.014,114.8
2019-10-18T05:57:01,42.805,6.029,0.047,-0.011,-0.032,100.0,105.0,97.0,13.4,1505.3,324.2,-0.7,1.9,2469.996,13.32,0.048,103.2
2019-10-18T06:00:02,42.805,6.029,0.013,0.013,-0.037,99.0,106.0,98.0,13.4,1505.3,323.1,-0.7,1.8,2470.002,13.32,0.018,45.0
2019-10-18T06:03:03,42.805,6.029,0.002,-0.021,-0.038,97.0,105.0,98.0,13.4,1505.3,328.2,-0.7,1.8,2470.007,13.32,0.021,174.6
2019-10-18T06:06:04,42.805,6.029,0.03,-0.01,-0.049,99.0,103.0,97.0,13.4,1505.3,326.1,-0.7,1.8,2470.052,13.32,0.031,108.4
2019-10-18T06:09:05,42.805,6.029,0.024,0.0,-0.016,100.0,102.0,99.0,13.4,1505.3,328.6,-0.7,1.8,2469.982,13.32,0.024,90.0
2019-10-18T06:12:06,42.805,6.029,0.027,-0.025,-0.031,99.0,104.0,98.0,13.4,1505.3,325.1,-0.7,1.8,2470.009,13.32,0.036,132.8
2019-10-18T06:15:07,42.805,6.029,0.005,0.006,-0.026,100.0,102.0,97.0,13.3,1505.3,324.0,-0.7,1.8,2469.98,13.32,0.007,39.8
2019-10-18T06:18:08,42.805,6.029,0.027,0.008,-0.021,99.0,105.0,99.0,13.4,1505.3,325.6,-0.7,1.9,2470.001,13.32,0.028,73.5
2019-10-18T06:21:09,42.805,6.029,0.015,0.01,-0.04,100.0,104.0,97.0,13.3,1505.3,327.6,-0.8,1.8,2469.991,13.32,0.018,56.3
2019-10-18T06:24:10,42.805,6.029,0.034,-0.008,-0.013,100.0,103.0,97.0,13.4,1505.3,327.2,-0.7,1.8,2470.017,13.32,0.034,103.2
2019-10-18T06:27:11,42.805,6.029,0.057,0.011,0.0,101.0,101.0,98.0,13.3,1505.3,325.9,-0.7,1.8,2469.965,13.32,0.058,79.1
2019-10-18T06:30:12,42.805,6.029,0.023,0.018,0.008,99.0,105.0,98.0,13.3,1505.3,323.6,-0.7,1.8,2470.039,13.32,0.029,52.0
2019-10-18T06:33:13,42.805,6.029,0.054,0.008,-0.004,98.0,104.0,98.0,13.3,1505.3,324.6,-0.7,1.8,2470.046,13.32,0.054,81.6
2019-10-18T06:36:14,42.805,6.029,0.049,0.0,-0.023,98.0,104.0,97.0,13.3,1505.3,328.4,-0.7,1.8,2470.04,13.32,0.049,90.0
2019-10-18T06:39:15,42.805,6.029,0.059,0.019,0.021,99.0,104.0,97.0,13.4,1505.3,326.3,-0.7,1.8,2470.066,13.32,0.061,72.2
2019-10-18T06:42:16,42.805,6.029,0.035,-0.003,-0.018,100.0,104.0,97.0,13.4,1505.3,322.6,-0.7,1.8,2470.053,13.32,0.035,94.9
2019-10-18T06:45:17,42.805,6.029,0.049,-0.009,-0.028,99.0,104.0,97.0,13.4,1505.3,328.0,-0.7,1.9,2470.001,13.32,0.049,100.4
2019-10-18T06:48:18,42.805,6.029,0.002,-0.009,-0.08,99.0,105.0,97.0,13.4,1505.3,325.7,-0.7,1.8,2470.052,13.32,0.009,167.5
2019-10-18T06:51:19,42.805,6.029,0.053,-0.012,-0.001,97.0,104.0,98.0,13.3,1505.3,327.8,-0.7,1.8,2470.046,13.32,0.054,102.8
2019-10-18T06:54:20,42.805,6.029,0.026,-0.001,-0.017,99.0,103.0,97.0,13.3,1505.3,327.2,-0.7,1.8,2470.078,13.32,0.026,92.2
2019-10-18T06:57:21,42.805,6.029,0.001,0.002,-0.065,100.0,104.0,96.0,13.4,1505.3,324.4,-0.7,1.8,2470.072,13.32,0.002,26.6
2019-10-18T07:00:22,42.805,6.029,0.039,0.007,-0.018,100.0,104.0,97.0,13.4,1505.3,328.6,-0.7,1.8,2470.066,13.32,0.039,79.8
2019-10-18T07:03:23,42.805,6.029,0.035,0.018,0.009,99.0,104.0,97.0,13.3,1505.3,325.9,-0.7,1.8,2470.07,13.32,0.039,62.8
2019-10-18T07:06:24,42.805,6.029,0.019,0.006,-0.009,98.0,104.0,97.0,13.3,1505.3,323.1,-0.7,1.9,2470.072,13.32,0.019,72.5
2019-10-18T07:09:25,42.805,6.029,0.05,-0.008,-0.026,98.0,105.0,97.0,13.4,1505.3,326.4,-0.7,1.8,2470.082,13.32,0.05,99.1
2019-10-18T07:12:26,42.805,6.029,0.045,0.006,-0.03,99.0,103.0,98.0,13.3,1505.3,324.9,-0.7,1.8,2470.086,13.32,0.045,82.4
2019-10-18T07:15:27,42.805,6.029,0.011,-0.018,-0.053,99.0,105.0,97.0,13.4,1505.3,325.3,-0.7,1.9,2470.067,13.32,0.021,148.6
2019-10-18T07:18:28,42.805,6.029,0.043,0.002,-0.035,99.0,104.0,97.0,13.4,1505.3,325.4,-0.7,1.9,2470.081,13.32,0.043,87.3
2019-10-18T07:21:29,42.805,6.029,0.01,0.002,-0.021,99.0,104.0,98.0,13.4,1505.3,323.8,-0.7,1.8,2470.12,13.32,0.01,78.7
2019-10-18T07:24:30,42.805,6.029,0.029,0.0,-0.029,99.0,104.0,98.0,13.3,1505.3,327.6,-0.7,1.8,2470.07,13.32,0.028,90.0
2019-10-18T07:27:31,42.805,6.029,0.017,0.013,-0.023,99.0,103.0,98.0,13.3,1505.3,325.1,-0.7,1.8,2470.1,13.32,0.021,52.6
2019-10-18T07:30:32,42.805,6.029,0.056,-0.01,-0.007,99.0,104.0,98.0,13.4,1505.3,323.5,-0.7,1.9,2470.061,13.32,0.056,100.1
2019-10-18T07:33:33,42.805,6.029,0.053,-0.011,-0.006,100.0,104.0,98.0,13.4,1505.3,327.4,-0.7,1.8,2470.096,13.32,0.054,101.7
2019-10-18T07:36:34,42.805,6.029,0.075,0.003,-0.01,100.0,104.0,98.0,13.3,1505.3,326.4,-0.7,1.9,2470.099,13.32,0.075,87.7
2019-10-18T07:39:35,42.805,6.029,0.022,-0.011,-0.02,99.0,103.0,97.0,13.3,1505.3,322.8,-0.7,1.8,2470.139,13.32,0.024,116.6
2019-10-18T07:42:36,42.805,6.029,0.019,-0.005,-0.028,100.0,105.0,96.0,13.4,1505.3,324.7,-0.7,1.9,2470.093,13.32,0.019,104.7
2019-10-18T07:45:37,42.805,6.029,0.027,-0.018,-0.029,99.0,103.0,98.0,13.4,1505.3,326.4,-0.7,1.8,2470.106,13.32,0.032,123.7
2019-10-18T07:48:38,42.805,6.029,0.032,0.0,-0.033,98.0,104.0,98.0,13.3,1505.3,328.2,-0.7,1.8,2470.093,13.32,0.032,90.0
2019-10-18T07:51:39,42.805,6.029,0.03,0.004,-0.033,100.0,104.0,97.0,13.4,1505.3,326.0,-0.7,1.9,2470.094,13.32,0.03,82.4
2019-10-18T07:54:40,42.805,6.029,0.06,-0.005,-0.005,98.0,105.0,98.0,13.4,1505.3,326.4,-0.7,1.8,2470.152,13.32,0.06,94.8
2019-10-18T07:57:41,42.805,6.029,0.039,0.012,-0.019,99.0,103.0,99.0,13.3,1505.3,324.9,-0.7,1.8,2470.101,13.32,0.04,72.9
2019-10-18T08:00:42,42.805,6.029,0.049,-0.01,-0.04,99.0,103.0,97.0,13.4,1505.3,323.7,-0.7,1.8,2470.1,13.32,0.05,101.5
2019-10-18T08:03:43,42.805,6.029,0.054,-0.018,-0.017,99.0,103.0,98.0,13.4,1505.3,324.1,-0.7,1.8,2470.13,13.32,0.056,108.4
2019-10-18T08:06:44,42.805,6.029,0.024,-0.004,-0.004,99.0,103.0,99.0,13.3,1505.3,324.1,-0.7,1.8,2470.12,13.33,0.024,99.5
2019-10-18T08:09:45,42.805,6.029,0.024,0.005,-0.012,101.0,103.0,97.0,13.3,1505.3,326.6,-0.7,1.9,2470.117,13.33,0.024,78.2
2019-10-18T08:12:46,42.805,6.029,0.027,0.014,0.0,99.0,103.0,97.0,13.4,1505.3,325.9,-0.7,1.9,2470.142,13.33,0.03,62.6
2019-10-18T08:15:47,42.805,6.029,0.011,-0.012,-0.035,100.0,104.0,97.0,13.3,1505.3,324.8,-0.7,1.8,2470.125,13.33,0.016,137.5
2019-10-18T08:18:48,42.805,6.029,0.024,-0.009,-0.076,99.0,103.0,97.0,13.4,1505.3,326.4,-0.7,1.9,2470.143,13.33,0.025,110.6
2019-10-18T08:21:49,42.805,6.029,0.002,-0.002,-0.045,99.0,103.0,97.0,13.4,1505.3,326.1,-0.8,1.8,2470.165,13.33,0.002,135.0
2019-10-18T08:24:50,42.805,6.029,0.04,-0.001,-0.039,100.0,103.0,98.0,13.3,1505.3,325.3,-0.7,1.8,2470.123,13.33,0.04,91.4
2019-10-18T08:27:51,42.805,6.029,0.011,0.006,-0.055,98.0,103.0,97.0,13.4,1505.3,322.9,-0.7,1.8,2470.174,13.33,0.012,61.4
2019-10-18T08:30:52,42.805,6.029,-0.003,-0.006,-0.041,99.0,103.0,98.0,13.4,1505.3,326.5,-0.7,1.8,2470.117,13.33,0.006,206.6
2019-10-18T08:33:53,42.805,6.029,0.009,-0.012,-0.069,102.0,103.0,97.0,13.4,1505.3,326.4,-0.7,1.8,2470.103,13.33,0.015,143.1
2019-10-18T08:36:54,42.805,6.029,-0.007,0.005,-0.068,99.0,102.0,98.0,13.4,1505.3,326.1,-0.7,1.8,2470.151,13.33,0.008,305.5
2019-10-18T08:39:55,42.805,6.029,0.019,0.002,-0.046,100.0,103.0,97.0,13.4,1505.3,325.9,-0.7,1.8,2470.121,13.33,0.019,84.0
2019-10-18T08:42:56,42.805,6.029,0.05,-0.004,-0.017,98.0,105.0,97.0,13.3,1505.3,326.4,-0.7,1.8,2470.134,13.33,0.05,94.6
2019-10-18T08:45:57,42.805,6.029,0.005,-0.016,-0.077,100.0,104.0,97.0,13.4,1505.3,324.5,-0.7,1.8,2470.162,13.33,0.016,162.6
2019-10-18T08:48:58,42.805,6.029,0.014,0.006,0.007,99.0,104.0,98.0,13.4,1505.3,328.0,-0.7,1.8,2470.186,13.33,0.015,66.8
2019-10-18T08:51:59,42.805,6.029,0.015,-0.014,-0.034,99.0,104.0,98.0,13.4,1505.3,327.9,-0.7,1.9,2470.135,13.33,0.02,133.0
2019-10-18T08:55:00,42.805,6.029,0.007,0.006,-0.028,99.0,104.0,97.0,13.4,1505.3,324.7,-0.7,1.8,2470.131,13.33,0.009,49.4
2019-10-18T08:58:01,42.805,6.029,-0.002,-0.009,-0.074,98.0,104.0,97.0,13.3,1505.3,325.0,-0.7,1.8,2470.162,13.33,0.009,192.5
2019-10-18T09:01:02,42.805,6.029,-0.008,0.014,-0.069,99.0,104.0,97.0,13.4,1505.3,325.3,-0.7,1.8,2470.134,13.33,0.016,330.3
2019-10-18T09:04:03,42.805,6.029,0.042,0.014,-0.011,99.0,104.0,97.0,13.4,1505.3,327.3,-0.7,1.8,2470.103,13.33,0.044,71.6
2019-10-18T09:07:04,42.805,6.029,0.002,-0.009,-0.042,98.0,104.0,97.0,13.4,1505.3,325.7,-0.7,1.8,2470.181,13.33,0.009,167.5
2019-10-18T09:10:05,42.805,6.029,0.029,-0.017,0.005,99.0,104.0,97.0,13.3,1505.3,327.7,-0.7,1.8,2470.168,13.33,0.033,120.4
2019-10-18T09:13:06,42.805,6.029,-0.005,0.0,-0.091,99.0,103.0,97.0,13.4,1505.3,326.2,-0.7,1.8,2470.182,13.33,0.005,270.0
2019-10-18T09:16:07,42.805,6.029,0.019,-0.007,-0.058,98.0,104.0,97.0,13.3,1505.3,326.3,-0.7,1.8,2470.189,13.33,0.02,110.2
2019-10-18T09:19:08,42.805,6.029,0.035,-0.009,0.012,98.0,103.0,98.0,13.3,1505.3,326.8,-0.7,1.8,2470.206,13.33,0.036,104.4
2019-10-18T09:22:09,42.805,6.029,0.029,0.018,-0.018,99.0,105.0,97.0,13.4,1505.3,327.2,-0.7,1.8,2470.201,13.33,0.034,58.2
2019-10-18T09:25:10,42.805,6.029,0.03,0.0,-0.03,99.0,105.0,98.0,13.3,1505.3,326.1,-0.7,1.9,2470.17,13.33,0.03,90.0
2019-10-18T09:28:11,42.805,6.029,0.008,-0.014,-0.057,98.0,104.0,99.0,13.3,1505.3,324.4,-0.7,1.8,2470.147,13.33,0.016,150.3
2019-10-18T09:31:12,42.805,6.029,0.0,0.017,-0.051,99.0,104.0,98.0,13.3,1505.3,325.6,-0.6,1.8,2470.163,13.33,0.017,0.0
2019-10-18T09:34:13,42.805,6.029,0.021,0.0,-0.03,100.0,101.0,97.0,13.4,1505.3,326.4,-0.7,1.8,2470.175,13.33,0.021,90.0
2019-10-18T09:37:14,42.805,6.029,0.01,0.003,-0.043,99.0,101.0,99.0,13.4,1505.3,327.8,-0.7,1.9,2470.152,13.33,0.01,73.3
2019-10-18T09:40:15,42.805,6.029,-0.009,-0.007,-0.074,99.0,103.0,97.0,13.3,1505.3,326.0,-0.7,1.8,2470.134,13.33,0.011,232.1
2019-10-18T09:43:16,42.805,6.029,-0.04,-0.019,-0.1,98.0,105.0,97.0,13.3,1505.3,328.5,-0.7,1.8,2470.188,13.33,0.044,244.6